timestamp,wind_dir_avg,wind_spd_max_dir,wind_spd_avg,wind_spd_gust,battery_voltage,lat,long
2018-12-25 00:00:00+00:00,327.0,329.0,3.9,4.8,,47.59359,-54.27349
2018-12-25 00:10:00+00:00,301.0,287.0,6.21,7.78,,47.59359,-54.27349
2018-12-25 00:20:00+00:00,298.0,301.0,8.74,10.18,,47.59359,-54.27349
2018-12-25 00:30:00+00:00,306.0,306.0,6.22,6.96,,47.59359,-54.27349
2018-12-25 00:40:00+00:00,308.0,307.0,5.37,6.55,,47.59359,-54.27349
2018-12-25 00:50:00+00:00,310.0,307.0,5.43,6.35,,47.59359,-54.27349
2018-12-25 01:00:00+00:00,308.0,311.0,4.57,5.41,,47.59359,-54.27349
2018-12-25 01:10:00+00:00,287.0,280.0,3.17,4.02,,47.59359,-54.27349
2018-12-25 01:20:00+00:00,278.0,274.0,3.98,4.6,,47.59359,-54.27349
2018-12-25 01:30:00+00:00,269.0,264.0,3.92,4.68,,47.59359,-54.27349
2018-12-25 01:40:00+00:00,280.0,282.0,3.47,4.19,,47.59359,-54.27349
2018-12-25 01:50:00+00:00,292.0,293.0,3.25,4.1,,47.59359,-54.27349
2018-12-25 02:00:00+00:00,287.0,286.0,4.16,5.48,,47.59359,-54.27349
2018-12-25 02:10:00+00:00,278.0,282.0,3.58,4.4,,47.59359,-54.27349
2018-12-25 02:20:00+00:00,272.0,271.0,3.38,4.23,,47.59359,-54.27349
2018-12-25 02:30:00+00:00,284.0,276.0,2.9,3.55,,47.59359,-54.27349
2018-12-25 02:40:00+00:00,292.0,282.0,2.84,4.29,,47.59359,-54.27349
2018-12-25 02:50:00+00:00,274.0,293.0,2.35,3.04,,47.59359,-54.27349
2018-12-25 03:00:00+00:00,251.0,270.0,4.33,5.65,,47.59359,-54.27349
2018-12-25 03:10:00+00:00,285.0,287.0,3.43,4.05,,47.59359,-54.27349
2018-12-25 03:20:00+00:00,286.0,282.0,3.43,4.09,,47.59359,-54.27349
2018-12-25 03:30:00+00:00,288.0,291.0,4.7,5.47,,47.59359,-54.27349
2018-12-25 03:40:00+00:00,274.0,274.0,3.71,4.31,,47.59359,-54.27349
2018-12-25 03:50:00+00:00,271.0,273.0,4.57,5.43,,47.59359,-54.27349
2018-12-25 04:00:00+00:00,276.0,274.0,5.37,6.22,,47.59359,-54.27349
2018-12-25 04:10:00+00:00,288.0,291.0,4.07,5.72,,47.59359,-54.27349
2018-12-25 04:20:00+00:00,280.0,276.0,4.24,5.02,,47.59359,-54.27349
2018-12-25 04:30:00+00:00,273.0,272.0,4.43,5.41,,47.59359,-54.27349
2018-12-25 04:40:00+00:00,265.0,272.0,3.53,4.04,,47.59359,-54.27349
2018-12-25 04:50:00+00:00,269.0,271.0,4.06,4.78,,47.59359,-54.27349
2018-12-25 05:00:00+00:00,254.0,251.0,2.84,3.54,,47.59359,-54.27349
2018-12-25 05:10:00+00:00,272.0,275.0,3.03,3.48,,47.59359,-54.27349
2018-12-25 05:20:00+00:00,263.0,265.0,3.38,4.0,,47.59359,-54.27349
2018-12-25 05:30:00+00:00,286.0,285.0,2.67,3.37,,47.59359,-54.27349
2018-12-25 05:40:00+00:00,272.0,271.0,2.44,3.02,,47.59359,-54.27349
2018-12-25 05:50:00+00:00,305.0,303.0,2.06,2.77,,47.59359,-54.27349
2018-12-25 06:00:00+00:00,289.0,299.0,3.01,3.61,,47.59359,-54.27349
2018-12-25 06:10:00+00:00,268.0,263.0,2.2,2.91,,47.59359,-54.27349
2018-12-25 06:20:00+00:00,263.0,267.0,2.07,2.69,,47.59359,-54.27349
2018-12-25 06:30:00+00:00,269.0,265.0,2.26,2.62,,47.59359,-54.27349
2018-12-25 06:40:00+00:00,282.0,276.0,2.42,3.34,,47.59359,-54.27349
2018-12-25 06:50:00+00:00,270.0,273.0,2.18,2.59,,47.59359,-54.27349
2018-12-25 07:00:00+00:00,240.0,244.0,2.28,2.61,,47.59359,-54.27349
2018-12-25 07:10:00+00:00,245.0,237.0,1.69,2.04,,47.59359,-54.27349
2018-12-25 07:20:00+00:00,266.0,271.0,2.86,3.3,,47.59359,-54.27349
2018-12-25 07:30:00+00:00,277.0,273.0,3.39,4.14,,47.59359,-54.27349
2018-12-25 07:40:00+00:00,306.0,309.0,4.46,5.57,,47.59359,-54.27349
2018-12-25 07:50:00+00:00,317.0,323.0,4.21,5.08,,47.59359,-54.27349
2018-12-25 08:00:00+00:00,309.0,309.0,3.76,4.12,,47.59359,-54.27349
2018-12-25 08:10:00+00:00,309.0,298.0,3.21,4.06,,47.59359,-54.27349
2018-12-25 08:20:00+00:00,317.0,315.0,2.35,2.96,,47.59359,-54.27349
2018-12-25 08:30:00+00:00,311.0,312.0,3.03,3.89,,47.59359,-54.27349
2018-12-25 08:40:00+00:00,317.0,316.0,2.47,3.26,,47.59359,-54.27349
2018-12-25 08:50:00+00:00,355.0,359.0,2.0,2.44,,47.59359,-54.27349
2018-12-25 09:00:00+00:00,332.0,333.0,2.3,3.08,,47.59359,-54.27349
2018-12-25 09:10:00+00:00,357.0,0.0,3.77,4.31,,47.59359,-54.27349
2018-12-25 09:20:00+00:00,1.0,354.0,3.14,3.8,,47.59359,-54.27349
2018-12-25 09:30:00+00:00,348.0,346.0,2.61,3.26,,47.59359,-54.27349
2018-12-25 09:40:00+00:00,8.0,347.0,1.93,2.75,,47.59359,-54.27349
2018-12-25 09:50:00+00:00,8.0,358.0,2.01,2.29,,47.59359,-54.27349
2018-12-25 10:00:00+00:00,357.0,354.0,1.44,1.7,,47.59359,-54.27349
2018-12-25 10:10:00+00:00,21.0,26.0,1.51,1.97,,47.59359,-54.27349
2018-12-25 10:20:00+00:00,352.0,355.0,2.16,3.28,,47.59359,-54.27349
2018-12-25 10:30:00+00:00,357.0,1.0,2.03,2.4,,47.59359,-54.27349
2018-12-25 10:40:00+00:00,346.0,347.0,2.44,2.85,,47.59359,-54.27349
2018-12-25 10:50:00+00:00,323.0,314.0,1.51,2.08,,47.59359,-54.27349
2018-12-25 11:00:00+00:00,353.0,357.0,1.77,2.21,,47.59359,-54.27349
2018-12-25 11:10:00+00:00,13.0,16.0,1.56,1.78,,47.59359,-54.27349
2018-12-25 11:20:00+00:00,341.0,327.0,1.09,1.51,,47.59359,-54.27349
2018-12-25 11:30:00+00:00,289.0,281.0,0.57,0.94,,47.59359,-54.27349
2018-12-25 11:40:00+00:00,274.0,283.0,1.07,1.34,,47.59359,-54.27349
2018-12-25 11:50:00+00:00,302.0,291.0,1.69,2.04,,47.59359,-54.27349
2018-12-25 12:00:00+00:00,297.0,296.0,1.89,2.36,,47.59359,-54.27349
2018-12-25 12:10:00+00:00,303.0,306.0,1.57,1.94,,47.59359,-54.27349
2018-12-25 12:20:00+00:00,290.0,304.0,1.45,1.97,,47.59359,-54.27349
2018-12-25 12:30:00+00:00,305.0,296.0,0.48,1.06,,47.59359,-54.27349
2018-12-25 12:40:00+00:00,306.0,298.0,1.06,1.63,,47.59359,-54.27349
2018-12-25 12:50:00+00:00,311.0,348.0,0.12,0.41,,47.59359,-54.27349
2018-12-25 13:00:00+00:00,329.0,319.0,0.86,1.21,,47.59359,-54.27349
2018-12-25 13:10:00+00:00,283.0,306.0,0.74,1.06,,47.59359,-54.27349
2018-12-25 13:20:00+00:00,280.0,287.0,1.02,1.48,,47.59359,-54.27349
2018-12-25 13:30:00+00:00,322.0,321.0,1.61,1.89,,47.59359,-54.27349
2018-12-25 13:40:00+00:00,78.0,87.0,0.39,1.16,,47.59359,-54.27349
2018-12-25 13:50:00+00:00,357.0,2.0,0.6,0.86,,47.59359,-54.27349
2018-12-25 14:00:00+00:00,294.0,294.0,2.18,2.86,,47.59359,-54.27349
2018-12-25 14:10:00+00:00,42.0,34.0,1.12,1.38,,47.59359,-54.27349
2018-12-25 14:20:00+00:00,101.0,89.0,0.65,0.9,,47.59359,-54.27349
2018-12-25 14:30:00+00:00,122.0,141.0,0.18,0.38,,47.59359,-54.27349
2018-12-25 14:40:00+00:00,293.0,263.0,0.47,0.93,,47.59359,-54.27349
2018-12-25 14:50:00+00:00,239.0,230.0,0.8,1.17,,47.59359,-54.27349
2018-12-25 15:00:00+00:00,284.0,306.0,0.85,1.24,,47.59359,-54.27349
2018-12-25 15:10:00+00:00,272.0,276.0,0.97,1.17,,47.59359,-54.27349
2018-12-25 15:20:00+00:00,347.0,330.0,0.76,1.29,,47.59359,-54.27349
2018-12-25 15:30:00+00:00,12.0,34.0,1.13,1.57,,47.59359,-54.27349
2018-12-25 15:40:00+00:00,23.0,34.0,0.57,1.1,,47.59359,-54.27349
2018-12-25 15:50:00+00:00,279.0,276.0,4.57,5.94,,47.59359,-54.27349
2018-12-25 16:00:00+00:00,280.0,278.0,5.05,5.83,,47.59359,-54.27349
2018-12-25 16:10:00+00:00,267.0,274.0,5.86,6.62,,47.59359,-54.27349
2018-12-25 16:20:00+00:00,264.0,258.0,5.44,6.67,,47.59359,-54.27349
2018-12-25 16:30:00+00:00,278.0,273.0,4.55,5.65,,47.59359,-54.27349
2018-12-25 16:40:00+00:00,268.0,266.0,5.22,5.87,,47.59359,-54.27349
2018-12-25 16:50:00+00:00,275.0,277.0,4.67,6.14,,47.59359,-54.27349
2018-12-25 17:00:00+00:00,255.0,274.0,3.18,4.16,,47.59359,-54.27349
2018-12-25 17:10:00+00:00,263.0,265.0,5.03,5.73,,47.59359,-54.27349
2018-12-25 17:20:00+00:00,255.0,248.0,6.3,6.85,,47.59359,-54.27349
2018-12-25 17:30:00+00:00,257.0,254.0,6.97,7.89,,47.59359,-54.27349
2018-12-25 17:40:00+00:00,270.0,260.0,8.2,9.82,,47.59359,-54.27349
2018-12-25 17:50:00+00:00,339.0,340.0,7.65,8.15,,47.59359,-54.27349
2018-12-25 18:00:00+00:00,340.0,337.0,7.31,7.71,,47.59359,-54.27349
2018-12-25 18:10:00+00:00,340.0,334.0,7.33,7.85,,47.59359,-54.27349
2018-12-25 18:20:00+00:00,340.0,332.0,5.59,6.29,,47.59359,-54.27349
2018-12-25 18:30:00+00:00,330.0,329.0,4.12,5.16,,47.59359,-54.27349
2018-12-25 18:40:00+00:00,316.0,317.0,4.81,5.9,,47.59359,-54.27349
2018-12-25 18:50:00+00:00,313.0,314.0,5.31,6.09,,47.59359,-54.27349
2018-12-25 19:00:00+00:00,306.0,306.0,6.09,7.03,,47.59359,-54.27349
2018-12-25 19:10:00+00:00,320.0,323.0,5.17,6.14,,47.59359,-54.27349
2018-12-25 19:20:00+00:00,314.0,318.0,4.77,6.15,,47.59359,-54.27349
2018-12-25 19:30:00+00:00,319.0,328.0,5.09,6.07,,47.59359,-54.27349
2018-12-25 19:40:00+00:00,303.0,290.0,4.34,5.7,,47.59359,-54.27349
2018-12-25 19:50:00+00:00,292.0,296.0,5.15,5.92,,47.59359,-54.27349
2018-12-25 20:00:00+00:00,285.0,288.0,5.16,6.32,,47.59359,-54.27349
2018-12-25 20:10:00+00:00,278.0,275.0,5.92,7.12,,47.59359,-54.27349
2018-12-25 20:20:00+00:00,272.0,272.0,6.41,7.21,,47.59359,-54.27349
2018-12-25 20:30:00+00:00,283.0,279.0,4.8,6.24,,47.59359,-54.27349
2018-12-25 20:40:00+00:00,283.0,275.0,4.77,5.66,,47.59359,-54.27349
2018-12-25 20:50:00+00:00,282.0,282.0,5.95,6.67,,47.59359,-54.27349
2018-12-25 21:00:00+00:00,289.0,295.0,5.29,6.22,,47.59359,-54.27349
2018-12-25 21:10:00+00:00,306.0,309.0,4.85,6.01,,47.59359,-54.27349
2018-12-25 21:20:00+00:00,263.0,268.0,3.9,4.85,,47.59359,-54.27349
2018-12-25 21:30:00+00:00,284.0,282.0,4.74,5.64,,47.59359,-54.27349
2018-12-25 21:40:00+00:00,294.0,290.0,4.82,6.35,,47.59359,-54.27349
2018-12-25 21:50:00+00:00,289.0,299.0,5.55,6.67,,47.59359,-54.27349
2018-12-25 22:00:00+00:00,303.0,291.0,3.65,4.11,,47.59359,-54.27349
2018-12-25 22:10:00+00:00,316.0,318.0,3.36,3.96,,47.59359,-54.27349
2018-12-25 22:20:00+00:00,331.0,335.0,2.28,3.09,,47.59359,-54.27349
2018-12-25 22:30:00+00:00,305.0,307.0,2.73,3.6,,47.59359,-54.27349
2018-12-25 22:40:00+00:00,323.0,322.0,3.08,3.7,,47.59359,-54.27349
2018-12-25 22:50:00+00:00,331.0,331.0,4.35,5.12,,47.59359,-54.27349
2018-12-25 23:00:00+00:00,323.0,314.0,3.6,5.43,,47.59359,-54.27349
2018-12-25 23:10:00+00:00,321.0,321.0,4.72,5.56,,47.59359,-54.27349
2018-12-25 23:20:00+00:00,313.0,316.0,4.52,5.25,,47.59359,-54.27349
2018-12-25 23:30:00+00:00,332.0,328.0,5.06,5.77,,47.59359,-54.27349
2018-12-25 23:40:00+00:00,313.0,308.0,5.07,6.66,,47.59359,-54.27349
2018-12-25 23:50:00+00:00,319.0,323.0,6.62,8.29,,47.59359,-54.27349
